Total_Precipitation_Accumulation
0.09 0.06 0.58 0.58 0.56 0.56 0.70 0.99 1.12 1.12 1.03 1.69 1.43 1.43 1.51 1.96 1.96 1.38 1.09 1.87 1.87 2.01 0.85 1.37 1.09 1.09 0.84 0.13 0.11 0.11 0.36 0.09 0.00 0.00 0.00 0.00 0.00 0.00 0.00 0.00 0.00 0.01 0.00 0.01 0.01 0.01 0.01 0.00 0.01 0.01 0.01 0.02 0.01 0.01 0.00 0.00 0.00 0.00 0.00 0.00 0.00 0.00 0.00 0.00 0.00 0.00 0.00 0.00 0.00 0.00 0.00 0.00 0.00 0.00 0.00 0.00 0.00 0.00 0.00 0.00 0.00 0.00 0.00 0.00 0.01 0.01 0.01 0.00 0.00 0.00 0.00 0.03 0.01 0.01 0.00 0.01 0.01 0.03 0.03 0.01 0.01 0.01 0.00
0.09 0.10 0.52 0.39 0.55 0.55 0.74 0.78 1.10 1.10 1.11 1.34 1.64 1.64 1.32 1.61 1.61 1.28 1.44 1.70 1.70 2.06 1.55 1.21 1.08 1.08 1.08 0.07 0.00 0.00 0.45 0.16 0.00 0.00 0.00 0.00 0.00 0.00 0.00 0.00 0.00 0.01 0.00 0.01 0.01 0.01 0.01 0.01 0.01 0.01 0.01 0.02 0.01 0.01 0.00 0.00 0.00 0.00 0.00 0.00 0.00 0.00 0.00 0.00 0.00 0.00 0.00 0.00 0.00 0.00 0.00 0.00 0.00 0.00 0.00 0.00 0.00 0.00 0.00 0.00 0.00 0.00 0.00 0.00 0.01 0.01 0.00 0.00 0.00 0.00 0.00 0.02 0.00 0.00 0.00 0.01 0.01 0.04 0.04 0.01 0.01 0.01 0.00
0.06 0.08 0.38 0.24 0.36 0.36 0.61 0.89 0.97 0.97 1.04 1.14 1.41 1.41 1.25 1.37 1.37 1.39 1.31 1.72 1.72 1.77 2.00 1.04 1.15 1.15 1.31 0.74 0.00 0.00 0.44 0.28 0.49 0.49 0.00 0.00 0.00 0.00 0.00 0.00 0.00 0.01 0.01 0.01 0.01 0.01 0.00 0.00 0.01 0.01 0.01 0.02 0.01 0.01 0.00 0.00 0.00 0.00 0.00 0.00 0.00 0.00 0.00 0.00 0.00 0.00 0.00 0.00 0.00 0.00 0.00 0.00 0.00 0.00 0.00 0.00 0.00 0.00 0.00 0.00 0.00 0.00 0.00 0.00 0.00 0.00 0.00 0.00 0.00 0.00 0.00 0.01 0.00 0.00 0.00 0.03 0.03 0.04 0.04 0.02 0.02 0.01 0.00
0.04 0.06 0.24 0.33 0.27 0.27 0.55 0.77 0.77 0.77 0.90 1.22 1.33 1.33 1.54 1.31 1.31 1.26 1.15 1.04 1.04 1.55 1.73 1.16 1.30 1.30 1.32 0.85 0.00 0.00 0.44 0.43 0.37 0.37 0.00 0.00 0.00 0.00 0.00 0.00 0.00 0.00 0.01 0.01 0.01 0.01 0.00 0.01 0.01 0.01 0.01 0.02 0.01 0.01 0.00 0.00 0.00 0.00 0.00 0.00 0.00 0.00 0.00 0.00 0.00 0.00 0.00 0.00 0.00 0.00 0.00 0.00 0.00 0.00 0.00 0.00 0.00 0.00 0.00 0.00 0.00 0.00 0.00 0.00 0.00 0.00 0.00 0.00 0.00 0.00 0.01 0.00 0.00 0.00 0.00 0.04 0.04 0.05 0.03 0.01 0.01 0.01 0.00
0.05 0.03 0.05 0.23 0.30 0.30 0.21 0.68 0.87 0.87 0.69 0.85 1.29 1.29 1.48 1.38 1.38 1.20 1.24 1.16 1.16 1.45 1.52 1.39 1.33 1.33 1.36 0.95 0.02 0.02 0.31 0.53 0.28 0.28 0.00 0.00 0.00 0.00 0.00 0.00 0.00 0.00 0.01 0.01 0.01 0.01 0.01 0.01 0.01 0.01 0.01 0.01 0.01 0.01 0.01 0.00 0.00 0.00 0.00 0.00 0.00 0.00 0.00 0.00 0.00 0.00 0.00 0.00 0.00 0.00 0.00 0.00 0.00 0.00 0.00 0.00 0.00 0.00 0.00 0.00 0.00 0.00 0.00 0.00 0.00 0.00 0.00 0.00 0.00 0.00 0.01 0.00 0.00 0.00 0.00 0.03 0.03 0.06 0.05 0.01 0.01 0.00 0.00
0.08 0.03 0.03 0.03 0.24 0.24 0.28 0.37 0.73 0.73 0.79 0.63 1.21 1.21 1.41 1.73 1.73 1.29 1.31 1.24 1.24 1.18 1.42 1.46 1.49 1.49 1.33 1.16 0.66 0.66 0.08 0.34 0.46 0.46 0.32 0.00 0.00 0.00 0.00 0.00 0.00 0.00 0.01 0.01 0.01 0.01 0.00 0.01 0.01 0.01 0.01 0.01 0.01 0.01 0.01 0.00 0.00 0.00 0.00 0.00 0.00 0.00 0.00 0.00 0.00 0.00 0.01 0.01 0.00 0.00 0.00 0.00 0.00 0.00 0.00 0.00 0.00 0.02 0.00 0.00 0.00 0.00 0.00 0.00 0.00 0.00 0.00 0.00 0.01 0.01 0.01 0.00 0.00 0.00 0.01 0.04 0.04 0.07 0.04 0.02 0.02 0.00 0.00
0.14 0.09 0.06 0.04 0.19 0.19 0.23 0.19 0.37 0.37 0.72 0.79 1.00 1.00 1.31 1.98 1.98 2.18 1.54 1.24 1.24 1.16 1.32 1.39 1.37 1.37 1.63 1.51 0.85 0.85 0.34 0.28 0.51 0.51 0.38 0.00 0.00 0.00 0.00 0.00 0.00 0.00 0.01 0.00 0.00 0.00 0.00 0.01 0.01 0.01 0.01 0.01 0.01 0.01 0.01 0.01 0.01 0.00 0.00 0.00 0.00 0.00 0.00 0.00 0.00 0.00 0.01 0.01 0.00 0.00 0.00 0.00 0.00 0.00 0.00 0.01 0.01 0.02 0.00 0.00 0.00 0.00 0.00 0.00 0.00 0.00 0.00 0.00 0.02 0.02 0.01 0.00 0.00 0.00 0.00 0.06 0.06 0.08 0.03 0.01 0.01 0.00 0.00
0.24 0.22 0.08 0.05 0.08 0.08 0.19 0.27 0.28 0.28 0.69 0.71 0.86 0.86 1.04 2.06 2.06 2.30 2.20 1.51 1.51 1.30 1.31 1.31 1.34 1.34 1.44 1.56 1.37 1.37 0.40 0.40 0.50 0.50 0.48 0.35 0.35 0.00 0.00 0.00 0.00 0.01 0.00 0.00 0.00 0.00 0.00 0.01 0.01 0.01 0.01 0.01 0.01 0.01 0.01 0.01 0.01 0.00 0.00 0.00 0.00 0.00 0.00 0.00 0.00 0.00 0.01 0.01 0.00 0.00 0.00 0.00 0.00 0.00 0.00 0.00 0.00 0.02 0.00 0.00 0.00 0.00 0.00 0.00 0.00 0.00 0.00 0.00 0.02 0.02 0.01 0.00 0.00 0.00 0.01 0.04 0.04 0.08 0.04 0.01 0.01 0.00 0.00
0.37 0.30 0.12 0.10 0.07 0.07 0.13 0.28 0.33 0.33 0.42 0.68 0.83 0.83 1.01 1.28 1.28 2.38 2.40 1.84 1.84 1.39 1.23 1.32 1.24 1.24 1.18 1.57 1.66 1.66 1.20 0.43 0.52 0.52 0.47 0.35 0.35 0.00 0.00 0.00 0.00 0.00 0.00 0.00 0.00 0.00 0.00 0.01 0.01 0.01 0.01 0.01 0.01 0.01 0.01 0.01 0.01 0.00 0.00 0.00 0.00 0.00 0.00 0.16 0.00 0.00 0.01 0.01 0.00 0.00 0.00 0.00 0.00 0.00 0.00 0.00 0.00 0.01 0.00 0.00 0.00 0.00 0.00 0.00 0.00 0.00 0.00 0.00 0.03 0.03 0.00 0.00 0.00 0.00 0.01 0.05 0.05 0.08 0.03 0.01 0.01 0.00 0.00
0.47 0.40 0.22 0.16 0.13 0.13 0.09 0.24 0.31 0.31 0.30 0.42 0.66 0.66 0.92 0.97 0.97 2.03 2.52 2.19 2.19 1.74 1.29 1.35 1.20 1.20 1.15 1.17 1.65 1.65 1.74 0.59 0.84 0.84 0.47 0.38 0.38 0.00 0.00 0.00 0.00 0.00 0.00 0.00 0.00 0.00 0.00 0.00 0.01 0.01 0.01 0.01 0.01 0.01 0.00 0.01 0.01 0.00 0.00 0.00 0.00 0.00 0.00 0.17 0.00 0.00 0.01 0.01 0.00 0.00 0.00 0.00 0.00 0.00 0.00 0.01 0.01 0.02 0.00 0.00 0.00 0.00 0.00 0.00 0.00 0.00 0.00 0.00 0.03 0.03 0.01 0.00 0.00 0.00 0.00 0.06 0.06 0.07 0.02 0.01 0.01 0.00 0.00
0.54 0.48 0.32 0.24 0.15 0.15 0.12 0.13 0.21 0.21 0.29 0.27 0.44 0.44 0.82 0.86 0.86 1.66 2.15 2.26 2.26 2.29 1.66 1.41 1.33 1.33 1.13 1.06 1.39 1.39 1.84 1.15 0.86 0.86 0.59 0.37 0.37 0.23 0.00 0.00 0.00 0.00 0.00 0.00 0.00 0.00 0.00 0.00 0.01 0.01 0.01 0.01 0.01 0.01 0.01 0.01 0.01 0.00 0.00 0.00 0.00 0.00 0.00 0.03 0.06 0.06 0.02 0.02 0.00 0.00 0.00 0.00 0.00 0.00 0.00 0.01 0.01 0.02 0.01 0.00 0.00 0.00 0.00 0.00 0.00 0.00 0.00 0.00 0.03 0.03 0.01 0.00 0.00 0.00 0.02 0.06 0.06 0.06 0.03 0.00 0.00 0.00 0.00
0.52 0.54 0.41 0.32 0.20 0.20 0.16 0.10 0.10 0.10 0.21 0.30 0.25 0.25 0.41 0.65 0.65 1.22 1.83 2.23 2.23 2.34 1.96 1.40 1.33 1.33 1.17 1.05 1.42 1.42 2.15 2.19 1.03 1.03 1.00 0.43 0.43 0.23 0.00 0.00 0.00 0.00 0.00 0.00 0.00 0.00 0.00 0.00 0.00 0.00 0.01 0.01 0.01 0.01 0.01 0.01 0.01 0.01 0.00 0.00 0.00 0.00 0.00 0.09 0.09 0.09 0.05 0.02 0.01 0.01 0.01 0.00 0.00 0.00 0.00 0.00 0.00 0.02 0.01 0.01 0.01 0.00 0.00 0.00 0.00 0.00 0.00 0.00 0.02 0.02 0.00 0.00 0.00 0.00 0.03 0.08 0.08 0.05 0.01 0.00 0.00 0.00 0.00
0.46 0.51 0.51 0.39 0.30 0.30 0.19 0.14 0.07 0.07 0.12 0.27 0.26 0.26 0.25 0.51 0.51 0.67 1.27 1.76 1.76 2.16 2.13 1.38 1.17 1.17 1.33 1.14 0.97 0.97 1.76 2.08 1.66 1.66 1.56 0.62 0.62 0.27 0.12 0.00 0.00 0.00 0.00 0.00 0.00 0.00 0.00 0.00 0.00 0.00 0.01 0.01 0.01 0.01 0.01 0.01 0.01 0.01 0.00 0.00 0.00 0.00 0.00 0.12 0.09 0.09 0.11 0.03 0.03 0.03 0.05 0.00 0.00 0.00 0.00 0.00 0.00 0.02 0.01 0.02 0.02 0.00 0.00 0.00 0.00 0.00 0.00 0.00 0.01 0.01 0.00 0.00 0.00 0.00 0.02 0.08 0.08 0.04 0.00 0.00 0.00 0.00 0.00
0.39 0.44 0.49 0.56 0.37 0.37 0.24 0.19 0.09 0.09 0.06 0.23 0.26 0.26 0.20 0.41 0.41 0.56 0.81 1.28 1.28 1.96 1.84 1.35 1.23 1.23 1.09 1.31 1.05 1.05 1.58 1.75 1.71 1.71 1.52 1.46 1.46 0.49 0.14 0.01 0.01 0.02 0.00 0.00 0.00 0.00 0.00 0.00 0.00 0.00 0.00 0.01 0.01 0.01 0.01 0.01 0.01 0.01 0.00 0.00 0.00 0.00 0.04 0.19 0.16 0.16 0.25 0.02 0.06 0.06 0.09 0.01 0.00 0.00 0.01 0.02 0.02 0.02 0.01 0.02 0.02 0.00 0.00 0.00 0.00 0.00 0.00 0.00 0.00 0.00 0.00 0.01 0.00 0.00 0.03 0.10 0.10 0.03 0.01 0.00 0.00 0.00 0.00
0.23 0.35 0.46 0.46 0.40 0.40 0.29 0.23 0.13 0.13 0.09 0.20 0.20 0.20 0.27 0.20 0.20 0.56 0.68 0.94 0.94 1.71 1.68 1.57 1.23 1.23 1.06 1.32 1.22 1.22 1.22 1.41 1.71 1.71 1.67 1.40 1.40 0.55 0.23 0.00 0.00 0.00 0.01 0.00 0.01 0.01 0.00 0.00 0.00 0.00 0.00 0.00 0.01 0.01 0.01 0.01 0.01 0.01 0.01 0.00 0.00 0.00 0.05 0.21 0.22 0.22 0.24 0.01 0.07 0.07 0.11 0.04 0.00 0.00 0.03 0.00 0.00 0.03 0.01 0.02 0.02 0.00 0.00 0.00 0.00 0.00 0.00 0.00 0.00 0.00 0.00 0.01 0.00 0.00 0.05 0.11 0.11 0.05 0.00 0.00 0.00 0.00 0.00
0.15 0.21 0.20 0.34 0.43 0.43 0.36 0.26 0.15 0.15 0.11 0.11 0.15 0.15 0.20 0.16 0.16 0.18 0.65 0.91 0.91 1.12 1.46 1.34 1.15 1.15 1.07 1.21 1.34 1.34 1.09 1.23 1.53 1.53 1.66 1.60 1.60 0.76 0.39 0.06 0.06 0.00 0.00 0.00 0.00 0.00 0.01 0.00 0.00 0.00 0.00 0.01 0.01 0.01 0.01 0.01 0.01 0.00 0.00 0.00 0.00 0.00 0.00 0.33 0.15 0.15 0.28 0.04 0.05 0.05 0.12 0.05 0.02 0.02 0.06 0.08 0.08 0.03 0.01 0.01 0.01 0.00 0.00 0.00 0.00 0.00 0.00 0.00 0.00 0.00 0.00 0.01 0.00 0.00 0.01 0.10 0.10 0.04 0.00 0.00 0.00 0.00 0.00
0.12 0.20 0.15 0.23 0.44 0.44 0.42 0.33 0.22 0.22 0.12 0.13 0.13 0.13 0.12 0.27 0.27 0.18 0.23 0.65 0.65 1.01 1.22 1.06 1.02 1.02 1.05 1.09 1.29 1.29 1.27 1.20 1.30 1.30 1.64 1.71 1.71 1.47 0.53 0.31 0.31 0.00 0.00 0.00 0.00 0.00 0.00 0.00 0.00 0.00 0.00 0.01 0.01 0.01 0.01 0.01 0.01 0.00 0.00 0.00 0.00 0.00 0.00 0.46 0.22 0.22 0.20 0.08 0.05 0.05 0.10 0.10 0.03 0.03 0.05 0.06 0.06 0.00 0.01 0.01 0.01 0.01 0.00 0.00 0.00 0.00 0.00 0.00 0.00 0.00 0.00 0.00 0.00 0.00 0.02 0.08 0.08 0.03 0.01 0.01 0.01 0.00 0.00
0.21 0.26 0.20 0.26 0.50 0.50 0.49 0.38 0.29 0.29 0.15 0.17 0.17 0.17 0.13 0.27 0.27 0.31 0.36 0.65 0.65 0.81 1.06 0.94 0.88 0.88 0.90 1.02 1.22 1.22 1.34 1.18 1.19 1.19 1.11 1.66 1.66 1.54 1.16 0.60 0.60 0.18 0.00 0.00 0.00 0.00 0.00 0.00 0.00 0.00 0.00 0.01 0.01 0.01 0.01 0.00 0.00 0.00 0.00 0.00 0.00 0.00 0.01 0.37 0.38 0.38 0.23 0.23 0.08 0.08 0.12 0.14 0.07 0.07 0.05 0.02 0.02 0.00 0.03 0.01 0.01 0.01 0.00 0.00 0.00 0.00 0.00 0.00 0.00 0.00 0.00 0.00 0.00 0.00 0.02 0.06 0.06 0.02 0.01 0.03 0.03 0.00 0.00
0.34 0.36 0.29 0.57 0.60 0.60 0.63 0.46 0.35 0.35 0.38 0.31 0.22 0.22 0.21 0.21 0.21 0.43 0.52 0.52 0.52 0.64 0.88 0.91 0.89 0.89 0.80 1.01 1.12 1.12 1.34 1.35 0.80 0.80 0.77 1.16 1.16 1.43 1.56 0.99 0.99 0.42 0.00 0.00 0.00 0.00 0.00 0.00 0.00 0.00 0.00 0.01 0.01 0.01 0.01 0.00 0.00 0.00 0.00 0.00 0.00 0.00 0.03 0.44 0.74 0.74 0.31 0.22 0.10 0.10 0.16 0.15 0.11 0.11 0.10 0.04 0.04 0.04 0.03 0.02 0.02 0.01 0.00 0.00 0.00 0.00 0.00 0.00 0.00 0.00 0.00 0.00 0.00 0.00 0.00 0.04 0.04 0.03 0.01 0.03 0.03 0.02 0.00
0.57 0.61 0.63 0.62 0.70 0.70 0.72 0.69 0.66 0.66 0.50 0.48 0.37 0.37 0.28 0.28 0.28 0.22 0.35 0.55 0.55 0.44 0.42 0.70 0.89 0.89 0.90 0.74 0.66 0.66 0.72 0.83 1.11 1.11 0.83 0.47 0.47 0.66 1.03 1.00 1.00 0.85 0.44 0.00 0.00 0.00 0.00 0.00 0.00 0.00 0.00 0.00 0.00 0.00 0.00 0.00 0.00 0.00 0.00 0.00 0.00 0.00 0.00 0.36 0.70 0.70 0.66 0.20 0.20 0.20 0.14 0.15 0.15 0.15 0.13 0.09 0.09 0.05 0.02 0.02 0.02 0.03 0.00 0.00 0.00 0.00 0.00 0.00 0.00 0.00 0.00 0.00 0.00 0.00 0.00 0.00 0.00 0.01 0.01 0.01 0.01 0.04 0.00
0.62 0.64 0.64 0.61 0.62 0.62 0.65 0.66 0.60 0.60 0.58 0.41 0.41 0.41 0.22 0.22 0.22 0.22 0.23 0.37 0.37 0.53 0.49 0.83 0.86 0.86 0.83 0.73 0.64 0.64 0.66 0.66 0.99 0.99 0.96 0.64 0.64 0.31 0.64 0.47 0.47 0.78 0.58 0.01 0.00 0.00 0.00 0.00 0.00 0.00 0.00 0.00 0.00 0.00 0.00 0.00 0.00 0.00 0.00 0.00 0.00 0.00 0.00 0.03 0.68 0.68 0.63 0.55 0.14 0.14 0.13 0.13 0.15 0.15 0.18 0.10 0.10 0.07 0.02 0.01 0.01 0.03 0.01 0.00 0.00 0.00 0.00 0.00 0.00 0.00 0.00 0.00 0.00 0.00 0.00 0.00 0.00 0.00 0.00 0.02 0.02 0.07 0.00
0.60 0.63 0.64 0.57 0.47 0.47 0.51 0.40 0.42 0.42 0.44 0.32 0.29 0.29 0.22 0.28 0.28 0.20 0.11 0.20 0.20 0.30 0.41 0.50 0.71 0.71 0.83 0.72 0.56 0.56 0.59 0.63 0.84 0.84 0.95 0.71 0.71 0.63 0.28 0.16 0.16 0.35 0.45 0.34 0.00 0.00 0.00 0.00 0.00 0.00 0.00 0.00 0.00 0.00 0.00 0.00 0.00 0.00 0.00 0.00 0.00 0.00 0.00 0.03 0.22 0.22 0.65 0.66 0.38 0.38 0.10 0.15 0.13 0.13 0.12 0.16 0.16 0.08 0.08 0.03 0.03 0.03 0.01 0.00 0.00 0.00 0.00 0.00 0.00 0.00 0.00 0.00 0.00 0.00 0.00 0.00 0.00 0.00 0.00 0.02 0.02 0.09 0.03
0.48 0.56 0.63 0.63 0.48 0.48 0.38 0.41 0.42 0.42 0.41 0.34 0.27 0.27 0.20 0.22 0.22 0.22 0.14 0.13 0.13 0.14 0.27 0.48 0.52 0.52 0.50 0.36 0.42 0.42 0.47 0.62 0.71 0.71 0.84 0.53 0.53 0.35 0.28 0.25 0.25 0.12 0.23 0.24 0.08 0.08 0.00 0.00 0.00 0.00 0.00 0.00 0.00 0.00 0.00 0.00 0.00 0.00 0.00 0.00 0.00 0.00 0.00 0.00 0.18 0.18 0.52 0.59 0.40 0.40 0.14 0.12 0.11 0.11 0.17 0.14 0.14 0.12 0.14 0.10 0.10 0.03 0.01 0.00 0.00 0.00 0.00 0.00 0.00 0.00 0.00 0.02 0.00 0.00 0.00 0.00 0.00 0.00 0.00 0.00 0.00 0.10 0.02
0.24 0.41 0.61 0.60 0.59 0.59 0.56 0.51 0.42 0.42 0.40 0.34 0.27 0.27 0.22 0.21 0.21 0.21 0.17 0.13 0.13 0.16 0.20 0.29 0.35 0.35 0.44 0.41 0.37 0.37 0.44 0.58 0.62 0.62 0.77 0.44 0.44 0.28 0.25 0.34 0.34 0.23 0.21 0.14 0.10 0.10 0.00 0.00 0.00 0.00 0.00 0.00 0.00 0.00 0.00 0.00 0.00 0.00 0.00 0.00 0.00 0.00 0.00 0.00 0.11 0.11 0.37 0.49 0.38 0.38 0.29 0.15 0.13 0.13 0.11 0.14 0.14 0.15 0.13 0.12 0.12 0.05 0.02 0.00 0.00 0.00 0.00 0.00 0.00 0.00 0.00 0.02 0.00 0.00 0.00 0.00 0.00 0.00 0.00 0.00 0.00 0.02 0.02
0.16 0.21 0.48 0.52 0.60 0.60 0.45 0.42 0.37 0.37 0.35 0.32 0.27 0.27 0.23 0.18 0.18 0.18 0.22 0.23 0.23 0.20 0.16 0.20 0.28 0.28 0.32 0.39 0.38 0.38 0.50 0.54 0.57 0.57 0.62 0.39 0.39 0.23 0.23 0.24 0.24 0.28 0.21 0.18 0.08 0.08 0.00 0.00 0.00 0.00 0.00 0.00 0.00 0.00 0.00 0.00 0.00 0.00 0.00 0.00 0.00 0.00 0.00 0.00 0.05 0.05 0.49 0.46 0.39 0.39 0.30 0.22 0.13 0.13 0.10 0.21 0.21 0.24 0.19 0.12 0.12 0.08 0.06 0.01 0.00 0.00 0.00 0.00 0.00 0.00 0.00 0.02 0.00 0.00 0.00 0.00 0.00 0.00 0.00 0.00 0.00 0.02 0.11
0.18 0.17 0.39 0.44 0.40 0.40 0.39 0.36 0.35 0.35 0.29 0.29 0.26 0.26 0.25 0.13 0.13 0.14 0.20 0.21 0.21 0.20 0.20 0.19 0.15 0.15 0.38 0.34 0.37 0.37 0.38 0.48 0.56 0.56 0.51 0.56 0.56 0.24 0.23 0.25 0.25 0.17 0.24 0.10 0.10 0.10 0.07 0.00 0.00 0.00 0.00 0.00 0.00 0.00 0.00 0.00 0.00 0.00 0.00 0.00 0.00 0.00 0.00 0.00 0.00 0.00 0.44 0.34 0.22 0.22 0.28 0.26 0.16 0.16 0.09 0.14 0.14 0.18 0.24 0.19 0.19 0.09 0.06 0.04 0.00 0.00 0.00 0.00 0.00 0.00 0.00 0.00 0.00 0.00 0.00 0.00 0.00 0.00 0.00 0.00 0.00 0.02 0.12
0.13 0.17 0.18 0.24 0.36 0.36 0.38 0.32 0.32 0.32 0.27 0.24 0.29 0.29 0.28 0.23 0.23 0.13 0.13 0.18 0.18 0.26 0.22 0.20 0.18 0.18 0.28 0.37 0.32 0.32 0.31 0.37 0.46 0.46 0.53 0.60 0.60 0.33 0.28 0.22 0.22 0.15 0.13 0.17 0.06 0.06 0.02 0.00 0.00 0.00 0.00 0.00 0.00 0.00 0.00 0.00 0.00 0.00 0.00 0.00 0.00 0.00 0.00 0.00 0.00 0.00 0.40 0.29 0.32 0.32 0.21 0.26 0.23 0.23 0.21 0.09 0.09 0.29 0.21 0.18 0.18 0.09 0.08 0.05 0.01 0.01 0.00 0.00 0.00 0.00 0.00 0.01 0.02 0.02 0.00 0.00 0.00 0.00 0.00 0.00 0.00 0.00 0.11
0.21 0.16 0.11 0.16 0.29 0.29 0.37 0.33 0.29 0.29 0.24 0.23 0.30 0.30 0.35 0.32 0.32 0.25 0.24 0.19 0.19 0.25 0.28 0.23 0.22 0.22 0.19 0.29 0.31 0.31 0.40 0.31 0.30 0.30 0.48 0.54 0.54 0.53 0.29 0.23 0.23 0.14 0.09 0.10 0.07 0.07 0.02 0.00 0.00 0.00 0.00 0.00 0.00 0.00 0.00 0.00 0.00 0.00 0.00 0.00 0.00 0.00 0.00 0.00 0.00 0.00 0.00 0.28 0.36 0.36 0.15 0.22 0.21 0.21 0.16 0.08 0.08 0.26 0.21 0.18 0.18 0.09 0.11 0.07 0.02 0.02 0.00 0.00 0.00 0.00 0.00 0.01 0.03 0.03 0.00 0.00 0.00 0.00 0.00 0.00 0.00 0.00 0.01
0.35 0.21 0.10 0.16 0.21 0.21 0.37 0.39 0.31 0.31 0.23 0.25 0.34 0.34 0.31 0.34 0.34 0.26 0.22 0.22 0.22 0.27 0.32 0.27 0.27 0.27 0.21 0.28 0.30 0.30 0.37 0.34 0.31 0.31 0.44 0.50 0.50 0.40 0.25 0.28 0.28 0.16 0.07 0.06 0.03 0.03 0.03 0.00 0.03 0.03 0.00 0.00 0.00 0.00 0.00 0.00 0.00 0.00 0.00 0.00 0.00 0.00 0.00 0.00 0.00 0.00 0.00 0.33 0.27 0.27 0.16 0.15 0.18 0.18 0.13 0.15 0.15 0.17 0.19 0.20 0.20 0.08 0.10 0.09 0.04 0.04 0.00 0.00 0.00 0.00 0.00 0.00 0.03 0.03 0.00 0.00 0.00 0.00 0.00 0.00 0.00 0.00 0.00
0.46 0.36 0.23 0.13 0.19 0.19 0.28 0.36 0.36 0.36 0.24 0.24 0.32 0.32 0.31 0.26 0.26 0.21 0.19 0.24 0.24 0.38 0.34 0.32 0.30 0.30 0.32 0.24 0.25 0.25 0.27 0.41 0.33 0.33 0.30 0.49 0.49 0.46 0.23 0.23 0.23 0.19 0.04 0.05 0.02 0.02 0.01 0.00 0.02 0.02 0.01 0.00 0.00 0.00 0.00 0.00 0.00 0.00 0.00 0.00 0.00 0.00 0.00 0.00 0.00 0.00 0.00 0.14 0.21 0.21 0.19 0.12 0.11 0.11 0.09 0.09 0.09 0.13 0.15 0.16 0.16 0.08 0.09 0.10 0.06 0.06 0.01 0.00 0.00 0.00 0.00 0.00 0.01 0.01 0.00 0.00 0.00 0.00 0.00 0.00 0.00 0.00 0.00
0.55 0.44 0.31 0.14 0.16 0.16 0.25 0.28 0.31 0.31 0.33 0.25 0.29 0.29 0.25 0.26 0.26 0.20 0.18 0.23 0.23 0.38 0.45 0.36 0.27 0.27 0.27 0.23 0.23 0.23 0.23 0.42 0.44 0.44 0.29 0.48 0.48 0.43 0.32 0.16 0.16 0.16 0.07 0.02 0.01 0.01 0.01 0.00 0.01 0.01 0.00 0.01 0.01 0.01 0.00 0.00 0.00 0.00 0.00 0.00 0.00 0.00 0.00 0.00 0.00 0.00 0.01 0.02 0.17 0.17 0.21 0.17 0.10 0.10 0.07 0.06 0.06 0.08 0.11 0.09 0.09 0.10 0.11 0.11 0.10 0.10 0.03 0.00 0.00 0.00 0.00 0.00 0.00 0.00 0.02 0.00 0.00 0.00 0.00 0.00 0.00 0.00 0.00
0.42 0.43 0.39 0.23 0.15 0.15 0.17 0.28 0.28 0.28 0.37 0.27 0.22 0.22 0.29 0.29 0.29 0.31 0.30 0.33 0.33 0.33 0.37 0.36 0.26 0.26 0.22 0.22 0.19 0.19 0.23 0.25 0.44 0.44 0.42 0.24 0.24 0.37 0.26 0.13 0.13 0.07 0.06 0.01 0.01 0.01 0.01 0.02 0.00 0.00 0.00 0.01 0.02 0.02 0.03 0.00 0.00 0.00 0.00 0.00 0.00 0.00 0.00 0.00 0.00 0.00 0.00 0.01 0.07 0.07 0.15 0.30 0.25 0.25 0.08 0.04 0.04 0.04 0.05 0.04 0.04 0.04 0.07 0.11 0.10 0.10 0.10 0.02 0.00 0.00 0.00 0.00 0.00 0.00 0.02 0.01 0.01 0.00 0.00 0.00 0.00 0.00 0.00
0.35 0.40 0.44 0.29 0.20 0.20 0.14 0.24 0.26 0.26 0.29 0.33 0.20 0.20 0.28 0.30 0.30 0.41 0.39 0.37 0.37 0.36 0.29 0.30 0.27 0.27 0.21 0.23 0.21 0.21 0.30 0.30 0.20 0.20 0.37 0.40 0.40 0.27 0.31 0.20 0.20 0.07 0.07 0.13 0.00 0.00 0.00 0.00 0.00 0.00 0.00 0.00 0.02 0.02 0.02 0.01 0.01 0.00 0.00 0.00 0.00 0.00 0.00 0.00 0.00 0.00 0.00 0.01 0.05 0.05 0.08 0.12 0.19 0.19 0.17 0.04 0.04 0.04 0.06 0.06 0.06 0.03 0.05 0.10 0.09 0.09 0.11 0.10 0.01 0.01 0.00 0.00 0.00 0.00 0.01 0.01 0.01 0.00 0.00 0.00 0.00 0.00 0.00
0.30 0.34 0.38 0.33 0.26 0.26 0.18 0.19 0.19 0.19 0.17 0.28 0.29 0.29 0.30 0.36 0.36 0.33 0.47 0.44 0.44 0.43 0.36 0.30 0.28 0.28 0.25 0.37 0.35 0.35 0.39 0.42 0.38 0.38 0.24 0.20 0.20 0.24 0.21 0.23 0.23 0.08 0.11 0.10 0.01 0.01 0.00 0.00 0.00 0.00 0.00 0.00 0.00 0.00 0.01 0.03 0.03 0.01 0.00 0.00 0.00 0.00 0.00 0.00 0.00 0.00 0.00 0.00 0.03 0.03 0.06 0.07 0.13 0.13 0.14 0.12 0.12 0.07 0.05 0.04 0.04 0.01 0.04 0.08 0.11 0.11 0.10 0.09 0.06 0.06 0.00 0.00 0.00 0.00 0.00 0.01 0.01 0.01 0.00 0.00 0.00 0.00 0.00
0.21 0.29 0.32 0.36 0.31 0.31 0.25 0.11 0.12 0.12 0.14 0.18 0.27 0.27 0.32 0.55 0.55 0.48 0.41 0.51 0.51 0.55 0.45 0.44 0.46 0.46 0.53 0.51 0.47 0.47 0.45 0.49 0.47 0.47 0.17 0.15 0.15 0.13 0.22 0.20 0.20 0.26 0.11 0.09 0.06 0.06 0.00 0.00 0.00 0.00 0.00 0.00 0.00 0.00 0.01 0.02 0.02 0.00 0.00 0.00 0.00 0.00 0.00 0.00 0.00 0.00 0.00 0.00 0.00 0.00 0.05 0.05 0.04 0.04 0.07 0.09 0.09 0.05 0.03 0.02 0.02 0.00 0.00 0.06 0.10 0.10 0.10 0.07 0.06 0.06 0.03 0.01 0.00 0.00 0.00 0.00 0.00 0.01 0.00 0.00 0.00 0.00 0.00
0.19 0.23 0.27 0.31 0.34 0.34 0.30 0.10 0.07 0.07 0.10 0.17 0.22 0.22 0.28 0.65 0.65 0.74 0.63 0.49 0.49 0.56 0.65 0.48 0.48 0.48 0.53 0.53 0.54 0.54 0.46 0.55 0.53 0.53 0.21 0.17 0.17 0.13 0.22 0.25 0.25 0.35 0.16 0.13 0.05 0.05 0.01 0.00 0.00 0.00 0.00 0.00 0.00 0.00 0.00 0.00 0.00 0.00 0.00 0.00 0.00 0.00 0.00 0.00 0.00 0.00 0.00 0.00 0.00 0.00 0.00 0.04 0.00 0.00 0.00 0.04 0.04 0.04 0.01 0.01 0.01 0.00 0.00 0.06 0.08 0.08 0.11 0.08 0.04 0.04 0.03 0.02 0.01 0.01 0.00 0.00 0.00 0.00 0.00 0.00 0.00 0.00 0.00
0.19 0.21 0.24 0.27 0.32 0.32 0.32 0.26 0.08 0.08 0.06 0.20 0.18 0.18 0.28 0.63 0.63 0.86 0.90 0.57 0.57 0.61 0.67 0.73 0.57 0.57 0.64 0.54 0.51 0.51 0.45 0.48 0.55 0.55 0.54 0.21 0.21 0.17 0.19 0.25 0.25 0.30 0.35 0.14 0.08 0.08 0.03 0.03 0.02 0.02 0.02 0.00 0.00 0.00 0.00 0.00 0.00 0.00 0.00 0.00 0.00 0.00 0.00 0.00 0.00 0.00 0.00 0.00 0.00 0.00 0.00 0.00 0.00 0.00 0.00 0.00 0.00 0.00 0.00 0.00 0.00 0.00 0.00 0.01 0.08 0.08 0.09 0.08 0.05 0.05 0.02 0.01 0.01 0.01 0.00 0.00 0.00 0.00 0.01 0.00 0.00 0.00 0.00
0.18 0.20 0.21 0.23 0.27 0.27 0.30 0.27 0.16 0.16 0.08 0.07 0.23 0.23 0.27 0.39 0.39 0.79 0.99 0.73 0.73 0.60 0.63 0.81 0.71 0.71 0.65 0.54 0.49 0.49 0.37 0.43 0.46 0.46 0.52 0.27 0.27 0.26 0.25 0.17 0.17 0.20 0.29 0.21 0.14 0.14 0.08 0.04 0.04 0.04 0.06 0.00 0.00 0.00 0.00 0.00 0.00 0.00 0.00 0.00 0.00 0.00 0.00 0.00 0.00 0.00 0.00 0.00 0.00 0.00 0.00 0.00 0.00 0.00 0.00 0.00 0.00 0.00 0.00 0.00 0.00 0.04 0.01 0.02 0.03 0.03 0.08 0.09 0.06 0.06 0.03 0.01 0.01 0.01 0.00 0.00 0.00 0.00 0.01 0.01 0.01 0.00 0.00
0.15 0.20 0.21 0.21 0.22 0.22 0.25 0.28 0.21 0.21 0.17 0.11 0.25 0.25 0.33 0.31 0.31 0.73 0.86 1.01 1.01 0.78 0.75 0.81 0.73 0.73 0.72 0.70 0.46 0.46 0.44 0.38 0.42 0.42 0.40 0.35 0.35 0.28 0.20 0.14 0.14 0.13 0.09 0.09 0.23 0.23 0.13 0.02 0.06 0.06 0.08 0.04 0.00 0.00 0.00 0.00 0.00 0.00 0.00 0.00 0.00 0.00 0.00 0.00 0.00 0.00 0.00 0.00 0.00 0.00 0.00 0.00 0.00 0.00 0.00 0.00 0.00 0.00 0.00 0.00 0.00 0.03 0.04 0.03 0.02 0.02 0.01 0.10 0.09 0.09 0.04 0.03 0.01 0.01 0.00 0.00 0.00 0.00 0.00 0.01 0.01 0.01 0.00
0.15 0.18 0.20 0.22 0.17 0.17 0.21 0.25 0.21 0.21 0.20 0.18 0.19 0.19 0.36 0.46 0.46 0.62 0.82 0.89 0.89 1.00 1.03 0.93 0.84 0.84 0.77 0.74 0.63 0.63 0.54 0.43 0.45 0.45 0.56 0.54 0.54 0.37 0.29 0.19 0.19 0.10 0.23 0.22 0.22 0.22 0.20 0.12 0.12 0.12 0.05 0.04 0.03 0.03 0.00 0.00 0.00 0.00 0.00 0.00 0.00 0.00 0.00 0.00 0.00 0.00 0.00 0.00 0.00 0.00 0.00 0.00 0.00 0.00 0.00 0.00 0.00 0.00 0.00 0.00 0.00 0.06 0.00 0.05 0.02 0.02 0.01 0.03 0.13 0.13 0.09 0.08 0.04 0.04 0.01 0.00 0.00 0.00 0.00 0.01 0.01 0.01 0.00
0.17 0.17 0.19 0.20 0.17 0.17 0.17 0.20 0.26 0.26 0.22 0.22 0.25 0.25 0.37 0.63 0.63 0.58 0.68 0.84 0.84 0.97 1.01 0.99 0.83 0.83 0.79 0.76 0.77 0.77 0.62 0.55 0.47 0.47 0.59 0.73 0.73 0.70 0.41 0.36 0.36 0.32 0.40 0.32 0.29 0.29 0.24 0.22 0.19 0.19 0.07 0.02 0.03 0.03 0.00 0.00 0.00 0.00 0.00 0.00 0.00 0.00 0.00 0.00 0.00 0.00 0.00 0.00 0.00 0.00 0.00 0.00 0.00 0.00 0.00 0.00 0.00 0.01 0.00 0.00 0.00 0.00 0.00 0.00 0.04 0.04 0.01 0.02 0.10 0.10 0.13 0.14 0.09 0.09 0.05 0.01 0.01 0.00 0.00 0.00 0.00 0.01 0.00
0.19 0.16 0.16 0.18 0.20 0.20 0.16 0.16 0.22 0.22 0.27 0.27 0.27 0.27 0.43 0.44 0.44 0.52 0.50 0.62 0.62 0.81 0.93 0.78 0.75 0.75 0.68 0.71 0.76 0.76 0.74 0.58 0.60 0.60 0.59 0.65 0.65 0.72 0.53 0.48 0.48 0.47 0.39 0.37 0.37 0.37 0.29 0.24 0.19 0.19 0.13 0.02 0.01 0.01 0.01 0.01 0.01 0.00 0.00 0.00 0.00 0.00 0.00 0.00 0.00 0.00 0.00 0.00 0.00 0.00 0.00 0.00 0.00 0.00 0.00 0.00 0.00 0.00 0.00 0.00 0.00 0.00 0.00 0.00 0.00 0.00 0.03 0.02 0.04 0.04 0.16 0.20 0.16 0.16 0.10 0.10 0.10 0.01 0.00 0.00 0.00 0.00 0.01
0.22 0.23 0.16 0.13 0.14 0.14 0.20 0.22 0.26 0.26 0.23 0.27 0.34 0.34 0.43 0.42 0.42 0.36 0.14 0.14 0.14 0.22 0.55 0.36 0.45 0.45 0.51 0.60 0.62 0.62 0.64 0.69 0.58 0.58 0.52 0.52 0.52 0.61 0.72 0.71 0.71 0.67 0.56 0.32 0.23 0.23 0.18 0.14 0.06 0.06 0.06 0.06 0.02 0.02 0.00 0.00 0.00 0.00 0.01 0.01 0.01 0.02 0.00 0.00 0.00 0.00 0.00 0.00 0.00 0.00 0.00 0.00 0.00 0.00 0.00 0.00 0.00 0.00 0.00 0.00 0.00 0.00 0.00 0.00 0.00 0.00 0.03 0.03 0.03 0.03 0.06 0.07 0.20 0.20 0.22 0.23 0.23 0.08 0.04 0.03 0.03 0.00 0.01
0.18 0.21 0.24 0.17 0.14 0.14 0.19 0.23 0.26 0.26 0.28 0.29 0.35 0.35 0.43 0.38 0.38 0.36 0.35 0.14 0.14 0.09 0.05 0.09 0.20 0.20 0.32 0.51 0.51 0.51 0.55 0.56 0.46 0.46 0.52 0.48 0.48 0.53 0.56 0.61 0.61 0.59 0.68 0.61 0.27 0.27 0.18 0.12 0.05 0.05 0.02 0.01 0.02 0.02 0.00 0.00 0.00 0.00 0.00 0.01 0.01 0.01 0.00 0.00 0.00 0.00 0.00 0.00 0.00 0.00 0.00 0.00 0.00 0.00 0.00 0.00 0.00 0.00 0.00 0.00 0.00 0.00 0.00 0.00 0.00 0.00 0.05 0.02 0.01 0.01 0.02 0.03 0.12 0.12 0.22 0.22 0.22 0.10 0.04 0.03 0.03 0.02 0.01
0.19 0.19 0.27 0.25 0.20 0.20 0.18 0.22 0.25 0.25 0.27 0.33 0.35 0.35 0.42 0.39 0.39 0.34 0.36 0.26 0.26 0.11 0.07 0.03 0.02 0.02 0.07 0.31 0.38 0.38 0.39 0.37 0.34 0.34 0.49 0.58 0.58 0.54 0.56 0.55 0.55 0.61 0.62 0.60 0.29 0.29 0.17 0.11 0.09 0.09 0.02 0.00 0.00 0.00 0.00 0.05 0.05 0.04 0.00 0.01 0.01 0.00 0.00 0.00 0.00 0.00 0.00 0.00 0.00 0.00 0.00 0.00 0.00 0.00 0.00 0.00 0.00 0.00 0.00 0.00 0.00 0.00 0.00 0.00 0.00 0.00 0.01 0.07 0.00 0.00 0.02 0.01 0.05 0.05 0.17 0.19 0.19 0.27 0.04 0.02 0.02 0.02 0.01
0.23 0.22 0.21 0.26 0.27 0.27 0.24 0.25 0.25 0.25 0.27 0.35 0.40 0.40 0.43 0.41 0.41 0.35 0.34 0.30 0.30 0.17 0.12 0.04 0.03 0.03 0.01 0.01 0.21 0.21 0.28 0.22 0.40 0.40 0.48 0.56 0.56 0.67 0.66 0.66 0.66 0.73 0.74 0.68 0.58 0.58 0.20 0.18 0.10 0.10 0.02 0.00 0.01 0.01 0.01 0.07 0.07 0.10 0.12 0.01 0.01 0.00 0.00 0.00 0.00 0.00 0.00 0.00 0.00 0.00 0.00 0.00 0.00 0.00 0.00 0.00 0.00 0.00 0.00 0.00 0.00 0.00 0.00 0.00 0.00 0.00 0.00 0.02 0.02 0.02 0.00 0.00 0.00 0.00 0.09 0.14 0.14 0.27 0.19 0.01 0.01 0.02 0.01
0.23 0.24 0.23 0.23 0.28 0.28 0.31 0.28 0.26 0.26 0.26 0.33 0.42 0.42 0.44 0.40 0.40 0.34 0.28 0.30 0.30 0.28 0.21 0.12 0.05 0.05 0.04 0.01 0.01 0.01 0.10 0.07 0.18 0.18 0.41 0.56 0.56 0.74 0.85 0.77 0.77 0.80 0.81 0.80 0.68 0.68 0.50 0.17 0.08 0.08 0.04 0.00 0.00 0.00 0.01 0.01 0.01 0.11 0.16 0.13 0.13 0.02 0.00 0.00 0.00 0.00 0.00 0.00 0.00 0.00 0.00 0.00 0.00 0.00 0.00 0.00 0.00 0.00 0.00 0.00 0.00 0.00 0.00 0.00 0.00 0.00 0.00 0.00 0.07 0.07 0.14 0.00 0.00 0.00 0.00 0.01 0.01 0.24 0.29 0.13 0.13 0.02 0.01
0.22 0.25 0.26 0.23 0.24 0.24 0.27 0.35 0.31 0.31 0.29 0.31 0.36 0.36 0.45 0.46 0.46 0.35 0.28 0.27 0.27 0.27 0.26 0.26 0.13 0.13 0.11 0.07 0.02 0.02 0.02 0.02 0.04 0.04 0.30 0.65 0.65 0.97 0.95 0.94 0.94 0.90 0.83 0.83 0.71 0.71 0.55 0.24 0.09 0.09 0.03 0.01 0.00 0.00 0.00 0.01 0.01 0.03 0.07 0.10 0.10 0.04 0.00 0.00 0.00 0.00 0.00 0.00 0.00 0.00 0.00 0.00 0.00 0.00 0.00 0.00 0.00 0.00 0.00 0.00 0.00 0.00 0.00 0.00 0.00 0.00 0.00 0.00 0.02 0.02 0.09 0.11 0.00 0.00 0.00 0.00 0.00 0.05 0.30 0.24 0.24 0.08 0.01
0.26 0.28 0.27 0.22 0.28 0.28 0.35 0.36 0.39 0.39 0.34 0.31 0.30 0.30 0.37 0.42 0.42 0.48 0.36 0.28 0.28 0.32 0.42 0.45 0.36 0.36 0.22 0.16 0.07 0.07 0.01 0.02 0.02 0.02 0.31 0.72 0.72 0.85 0.75 0.66 0.66 0.69 0.71 0.75 0.60 0.60 0.51 0.45 0.18 0.18 0.05 0.01 0.00 0.00 0.00 0.00 0.00 0.00 0.02 0.03 0.03 0.01 0.01 0.00 0.00 0.00 0.00 0.00 0.00 0.00 0.00 0.00 0.00 0.00 0.00 0.00 0.00 0.00 0.00 0.00 0.00 0.00 0.00 0.00 0.00 0.00 0.00 0.00 0.02 0.02 0.03 0.14 0.03 0.03 0.00 0.01 0.01 0.04 0.11 0.28 0.28 0.17 0.05
0.28 0.28 0.28 0.29 0.30 0.30 0.32 0.34 0.38 0.38 0.37 0.35 0.25 0.25 0.29 0.40 0.40 0.51 0.54 0.65 0.65 0.57 0.58 0.69 0.65 0.65 0.26 0.18 0.11 0.11 0.08 0.06 0.06 0.06 0.32 0.35 0.35 0.40 0.50 0.41 0.41 0.46 0.49 0.53 0.58 0.58 0.48 0.39 0.35 0.35 0.14 0.04 0.00 0.00 0.00 0.00 0.00 0.00 0.00 0.01 0.01 0.01 0.00 0.00 0.00 0.00 0.00 0.00 0.00 0.00 0.00 0.00 0.00 0.00 0.00 0.00 0.00 0.00 0.00 0.00 0.00 0.00 0.00 0.00 0.00 0.00 0.00 0.00 0.00 0.00 0.04 0.06 0.11 0.11 0.00 0.02 0.02 0.06 0.09 0.12 0.12 0.25 0.13
0.23 0.25 0.21 0.21 0.24 0.24 0.29 0.33 0.34 0.34 0.38 0.37 0.31 0.31 0.28 0.36 0.36 0.53 0.66 0.77 0.77 0.76 0.60 0.61 0.64 0.64 0.40 0.29 0.18 0.18 0.12 0.06 0.10 0.10 0.24 0.17 0.17 0.15 0.18 0.07 0.07 0.39 0.48 0.48 0.50 0.50 0.42 0.32 0.28 0.28 0.22 0.11 0.03 0.03 0.04 0.00 0.00 0.00 0.00 0.00 0.00 0.00 0.00 0.00 0.00 0.00 0.00 0.00 0.00 0.00 0.00 0.00 0.00 0.00 0.00 0.00 0.00 0.00 0.00 0.00 0.00 0.00 0.00 0.00 0.00 0.00 0.00 0.00 0.00 0.00 0.01 0.02 0.08 0.08 0.05 0.04 0.04 0.05 0.07 0.08 0.08 0.19 0.26
0.19 0.21 0.17 0.17 0.19 0.19 0.22 0.27 0.28 0.28 0.30 0.32 0.40 0.40 0.44 0.40 0.40 0.52 0.68 0.77 0.77 0.78 0.54 0.46 0.45 0.45 0.45 0.25 0.18 0.18 0.18 0.11 0.07 0.07 0.07 0.12 0.12 0.04 0.04 0.25 0.25 0.44 0.37 0.48 0.46 0.46 0.35 0.26 0.20 0.20 0.22 0.19 0.12 0.12 0.11 0.05 0.05 0.00 0.00 0.00 0.00 0.00 0.00 0.00 0.00 0.00 0.00 0.00 0.00 0.00 0.00 0.00 0.00 0.00 0.00 0.00 0.00 0.00 0.00 0.00 0.00 0.00 0.00 0.00 0.00 0.00 0.00 0.00 0.00 0.00 0.00 0.02 0.03 0.03 0.08 0.05 0.05 0.04 0.04 0.07 0.07 0.11 0.24
0.13 0.11 0.14 0.16 0.18 0.18 0.20 0.23 0.29 0.29 0.28 0.29 0.33 0.33 0.56 0.53 0.53 0.48 0.54 0.70 0.70 0.79 0.76 0.48 0.37 0.37 0.37 0.31 0.24 0.24 0.22 0.15 0.05 0.05 0.03 0.03 0.03 0.04 0.48 0.51 0.51 0.31 0.19 0.27 0.28 0.28 0.17 0.20 0.16 0.16 0.14 0.16 0.14 0.14 0.13 0.10 0.10 0.00 0.00 0.00 0.00 0.00 0.00 0.00 0.00 0.00 0.01 0.00 0.00 0.00 0.00 0.00 0.00 0.00 0.00 0.00 0.00 0.00 0.00 0.00 0.00 0.00 0.00 0.00 0.00 0.00 0.00 0.00 0.00 0.00 0.00 0.01 0.03 0.03 0.01 0.04 0.04 0.05 0.04 0.05 0.05 0.08 0.16
0.05 0.07 0.11 0.15 0.19 0.19 0.20 0.22 0.29 0.29 0.28 0.29 0.32 0.32 0.53 0.54 0.54 0.44 0.42 0.61 0.61 0.77 0.83 0.58 0.47 0.47 0.44 0.45 0.33 0.33 0.24 0.16 0.05 0.05 0.05 0.01 0.01 0.05 0.17 0.18 0.18 0.11 0.04 0.09 0.16 0.16 0.03 0.03 0.11 0.11 0.08 0.10 0.13 0.13 0.12 0.13 0.13 0.09 0.00 0.00 0.00 0.00 0.00 0.00 0.01 0.01 0.00 0.00 0.00 0.00 0.00 0.00 0.00 0.00 0.00 0.00 0.00 0.00 0.00 0.00 0.00 0.00 0.00 0.00 0.00 0.00 0.00 0.00 0.00 0.00 0.00 0.00 0.02 0.02 0.02 0.01 0.01 0.02 0.05 0.05 0.05 0.05 0.06
0.05 0.06 0.08 0.12 0.18 0.18 0.20 0.23 0.28 0.28 0.31 0.29 0.31 0.31 0.40 0.48 0.48 0.41 0.46 0.54 0.54 0.71 0.90 0.97 0.61 0.61 0.54 0.47 0.33 0.33 0.26 0.17 0.11 0.11 0.11 0.04 0.04 0.02 0.01 0.06 0.06 0.07 0.05 0.04 0.07 0.07 0.00 0.00 0.05 0.05 0.05 0.08 0.12 0.12 0.14 0.13 0.13 0.10 0.08 0.03 0.03 0.00 0.00 0.00 0.00 0.00 0.00 0.00 0.00 0.00 0.00 0.00 0.00 0.00 0.00 0.00 0.00 0.00 0.00 0.00 0.00 0.00 0.00 0.00 0.00 0.00 0.00 0.00 0.00 0.00 0.00 0.00 0.01 0.01 0.02 0.02 0.02 0.00 0.03 0.03 0.03 0.05 0.04
0.06 0.05 0.06 0.09 0.15 0.15 0.18 0.22 0.23 0.23 0.35 0.37 0.29 0.29 0.30 0.35 0.35 0.39 0.50 0.69 0.69 0.76 0.91 1.04 0.76 0.76 0.58 0.49 0.50 0.50 0.35 0.27 0.13 0.13 0.13 0.07 0.07 0.01 0.05 0.10 0.10 0.14 0.25 0.28 0.01 0.01 0.00 0.00 0.02 0.02 0.02 0.05 0.06 0.06 0.08 0.12 0.12 0.13 0.12 0.12 0.12 0.03 0.00 0.00 0.00 0.00 0.00 0.00 0.00 0.00 0.00 0.00 0.00 0.00 0.00 0.00 0.00 0.00 0.00 0.00 0.00 0.00 0.00 0.00 0.00 0.00 0.00 0.00 0.00 0.00 0.00 0.00 0.00 0.00 0.01 0.02 0.02 0.01 0.00 0.00 0.00 0.03 0.03
0.04 0.05 0.05 0.07 0.10 0.10 0.16 0.21 0.24 0.24 0.35 0.42 0.38 0.38 0.33 0.45 0.45 0.46 0.53 0.66 0.66 0.84 0.87 0.99 0.96 0.96 0.68 0.60 0.57 0.57 0.51 0.43 0.22 0.22 0.14 0.06 0.06 0.04 0.14 0.10 0.10 0.01 0.03 0.11 0.00 0.00 0.00 0.00 0.02 0.02 0.02 0.01 0.02 0.02 0.02 0.05 0.05 0.11 0.12 0.11 0.11 0.10 0.02 0.00 0.00 0.00 0.00 0.00 0.00 0.00 0.00 0.00 0.00 0.00 0.00 0.00 0.00 0.00 0.00 0.00 0.00 0.00 0.00 0.00 0.00 0.00 0.00 0.00 0.00 0.00 0.00 0.00 0.00 0.00 0.00 0.01 0.01 0.02 0.01 0.01 0.01 0.01 0.02
0.03 0.05 0.06 0.07 0.09 0.09 0.16 0.21 0.26 0.26 0.30 0.41 0.45 0.45 0.44 0.48 0.48 0.53 0.59 0.66 0.66 0.71 0.74 0.77 0.85 0.85 0.76 0.66 0.63 0.63 0.73 0.51 0.37 0.37 0.20 0.14 0.14 0.06 0.06 0.04 0.04 0.00 0.00 0.00 0.00 0.00 0.00 0.01 0.00 0.00 0.00 0.01 0.00 0.00 0.03 0.03 0.03 0.06 0.10 0.06 0.06 0.09 0.08 0.04 0.04 0.04 0.01 0.00 0.00 0.00 0.00 0.00 0.00 0.00 0.00 0.00 0.00 0.00 0.00 0.00 0.00 0.00 0.00 0.00 0.00 0.00 0.00 0.00 0.00 0.00 0.00 0.00 0.00 0.00 0.00 0.00 0.00 0.01 0.01 0.02 0.02 0.02 0.02
0.03 0.05 0.06 0.09 0.10 0.10 0.17 0.22 0.26 0.26 0.30 0.39 0.44 0.44 0.44 0.45 0.45 0.57 0.61 0.62 0.62 0.60 0.66 0.72 0.66 0.66 0.70 0.67 0.70 0.70 0.68 0.47 0.42 0.42 0.33 0.25 0.25 0.11 0.08 0.08 0.08 0.08 0.02 0.00 0.01 0.01 0.00 0.00 0.00 0.00 0.00 0.00 0.00 0.00 0.01 0.02 0.02 0.01 0.01 0.02 0.02 0.07 0.10 0.12 0.08 0.08 0.04 0.01 0.00 0.00 0.00 0.00 0.00 0.00 0.00 0.00 0.00 0.00 0.00 0.00 0.00 0.00 0.00 0.00 0.00 0.00 0.00 0.00 0.00 0.00 0.00 0.00 0.00 0.00 0.00 0.00 0.00 0.00 0.02 0.04 0.04 0.03 0.04
0.04 0.02 0.06 0.07 0.10 0.10 0.14 0.20 0.24 0.24 0.27 0.38 0.42 0.42 0.41 0.41 0.41 0.50 0.51 0.51 0.51 0.54 0.62 0.64 0.56 0.56 0.58 0.74 0.68 0.68 0.55 0.43 0.34 0.34 0.44 0.50 0.50 0.36 0.10 0.16 0.16 0.07 0.04 0.06 0.03 0.03 0.01 0.00 0.00 0.00 0.00 0.00 0.00 0.00 0.00 0.00 0.00 0.01 0.02 0.00 0.00 0.02 0.06 0.09 0.07 0.07 0.06 0.03 0.00 0.00 0.00 0.00 0.00 0.00 0.00 0.00 0.00 0.00 0.00 0.00 0.00 0.00 0.00 0.00 0.00 0.00 0.00 0.00 0.00 0.00 0.00 0.00 0.00 0.00 0.00 0.00 0.00 0.00 0.01 0.01 0.01 0.04 0.05
0.06 0.03 0.04 0.04 0.06 0.06 0.09 0.15 0.20 0.20 0.24 0.35 0.41 0.41 0.42 0.40 0.40 0.42 0.46 0.50 0.50 0.56 0.56 0.61 0.60 0.60 0.63 0.77 0.72 0.72 0.51 0.39 0.26 0.26 0.40 0.49 0.49 0.29 0.10 0.15 0.15 0.09 0.03 0.04 0.01 0.01 0.01 0.00 0.00 0.00 0.00 0.00 0.00 0.00 0.00 0.00 0.00 0.01 0.01 0.01 0.01 0.00 0.01 0.04 0.03 0.03 0.06 0.05 0.03 0.03 0.01 0.00 0.00 0.00 0.00 0.00 0.00 0.00 0.00 0.00 0.00 0.00 0.00 0.00 0.00 0.00 0.00 0.00 0.00 0.00 0.00 0.00 0.00 0.00 0.00 0.00 0.00 0.00 0.00 0.00 0.00 0.02 0.05